Regional Weather Roundup
Issued by NWS

Home | Current Version | Previous Version | Graphics & Text | Print | Product List | Glossary On
Versions: 1 2 3 4 5 6 7 8 9 10 11 12 13 14 15 16 17 18 19 20 21 22 23 24 25 26 27 28 29 30 31 32 33 34 35 36 37 38 39 40 41 42 43 44 45 46 47 48 49 50
000
ASUS43 KLOT 251600
RWRIL

ILLINOIS REGIONAL WEATHER ROUNDUP
NATIONAL WEATHER SERVICE CHICAGO/ROMEOVILLE IL
1100 AM CDT FRI JUL 25 2014

NOTE: "FAIR" INDICATES FEW OR NO CLOUDS BELOW 12,000 FEET WITH NO
SIGNIFICANT WEATHER AND/OR OBSTRUCTIONS TO VISIBILITY.

* THESE STATIONS ARE NOT UNDER NWS QUALITY CONTROL. THEY ALSO MAY NOT
  REPORT WEATHER SUCH AS PRECIPITATION OR FOG.

ILZ001-002-007-009-015-016-024-251700-
NORTHWEST ILLINOIS

CITY           SKY/WX    TMP DP  RH WIND       PRES   REMARKS
MOLINE         LGT RAIN  63  59  87 W10       30.08R
STERLING*      CLOUDY    64  59  82 W6        30.04R
$$

ILZ003-004-008-010-011-017-018-251700-
NORTH CENTRAL ILLINOIS

CITY           SKY/WX    TMP DP  RH WIND       PRES   REMARKS
ROCKFORD       CLOUDY    68  58  70 SW18      30.02F
$$

ILZ005-006-012>014-019>023-251700-
NORTHEAST ILLINOIS

CITY           SKY/WX    TMP DP  RH WIND       PRES   REMARKS
CHICAGO-OHARE  CLOUDY    70  54  56 S13       30.01F
CHICAGO-MIDWAY CLOUDY    72  57  59 S12       30.01F
AURORA         CLOUDY    66  58  75 S5        30.04R
WAUKEGAN       CLOUDY    71  56  58 S12       30.00F
DUPAGE AIRPORT CLOUDY    68  57  68 SW9       30.03R
WHEELING       CLOUDY    73  55  53 S14       30.01F
$$

LMZ740>746-251700-
SOUTHERN LAKE MICHIGAN

STATION/POSITION SKY/WX   TEMP    WIND        PRES    VSBY  WAVE
                          AIR SEA DIR/SP/G                  HT/PER
                          (F)     (DEG/KT/KT) (MB)    (MI)  (FT/S)
SOUTHERN BUOY              62 61  180/  6/  8 1017.0F         1
WAUKEGAN HARBOR            69     180/  8/  9   N/A
HARRISON CRIB              65     170/ 13/ 14   N/A
CALUMET HARBOR             70     170/  9/ 13 1015.7F
MICHIGAN CITY              66     150/  8/ 11   N/A
MICHIGAN CITY 6N           68 68  180/  8/ 10   N/A           1/ 2
ST. JOSEPH                 64 63  170/  4/  6   N/A           2/ 3
$$

ILZ025>027-034>036-040-047-049-050-058-095>099-251700-
WEST-CENTRAL ILLINOIS

CITY           SKY/WX    TMP DP  RH WIND       PRES   REMARKS
QUINCY         LGT RAIN  62  59  90 SE7       30.01F FOG
$$

ILZ028>032-037-038-041>044-048-051>054-059>061-251700-
CENTRAL ILLINOIS

CITY           SKY/WX    TMP DP  RH WIND       PRES   REMARKS
DECATUR        LGT RAIN  66  60  81 S7        30.07F
PEORIA         LGT RAIN  65  59  81 SW8       30.05R
SPRINGFIELD    RAIN      64  61  90 S9        30.03F
TAYLORVILLE    NOT AVBL
$$

ILZ033-039-045-046-055>057-062-063-251700-
EAST-CENTRAL ILLINOIS

CITY           SKY/WX    TMP DP  RH WIND       PRES   REMARKS
CHAMPAIGN      CLOUDY    68  60  75 S9        30.06F
MATTOON        CLOUDY    67  59  75 S6        30.07F
$$

ILZ079-100>102-251700-
SOUTHWEST ILLINOIS

CITY           SKY/WX    TMP DP  RH WIND       PRES   REMARKS
CAHOKIA*       CLOUDY    75  61  61 SE8       30.05F
$$

ILZ064>066-069>071-074>076-080>082-084>086-088>090-092>094-251700-
SOUTH-CENTRAL ILLINOIS

CITY           SKY/WX    TMP DP  RH WIND       PRES   REMARKS
CARBONDALE     MOSUNNY   78  57  48 S9        30.07F
MT. VERNON     MOSUNNY   77  61  57 S5        30.09F
$$

ILZ067-068-072-073-078-083-087-091-251700-
SOUTHEAST ILLINOIS

CITY           SKY/WX    TMP DP  RH WIND       PRES   REMARKS
LAWRENCEVILLE  CLOUDY    73  59  61 CALM      30.12R
$$

ABBREVIATIONS USED IN REMARKS
   TC - TEMPERATURE IN CELSIUS
  WCI - WIND CHILL INDEX
   HX - HEAT INDEX
  VSB - VISIBILITY
$$



USA.gov is the U.S. government's official web portal to all federal, state and local government web resources and services.